LTAC Weather Reports


time (UTC)temp
C
wind
direction
speed
KPH
gust
KPH
rain 1hr
cm
rain 24hr
cm
rain mn
cm
humidity
%
barometer
mb
20260507084504 13 230 11.3 0.0 0.00 0.00 0.00 50 1020.0
20260507080004 13 0 4.8 0.0 0.00 0.00 0.00 54 1021.0
20260507074504 12 0 3.2 0.0 0.00 0.00 0.00 58 1021.0
20260507073004 12 0 3.2 0.0 0.00 0.00 0.00 58 1021.0
20260507071504 11 0 3.2 0.0 0.00 0.00 0.00 66 1021.0
20260507063004 10 0 1.6 0.0 0.00 0.00 0.00 66 1021.0
20260507061504 7 0 3.2 0.0 0.00 0.00 0.00 75 1020.0
20260507060003 7 0 3.2 0.0 0.00 0.00 0.00 75 1020.0
20260507054504 5 0 3.2 0.0 0.00 0.00 0.00 80 1020.0
20260507053004 5 0 3.2 0.0 0.00 0.00 0.00 80 1020.0
20260507051504 3 40 4.8 0.0 0.00 0.00 0.00 86 1020.0
20260507050005 3 40 4.8 0.0 0.00 0.00 0.00 86 1020.0
20260507044504 2 50 4.8 0.0 0.00 0.00 0.00 93 1020.0
20260507041504 2 0 3.2 0.0 0.00 0.00 0.00 86 1020.0
20260507040005 2 0 3.2 0.0 0.00 0.00 0.00 86 1020.0
20260507034504 1 0 3.2 0.0 0.00 0.00 0.00 93 1020.0
20260507031504 2 0 3.2 0.0 0.00 0.00 0.00 86 1019.0
20260507024503 1 50 9.7 0.0 0.00 0.00 0.00 93 1019.0
20260507023004 1 50 9.7 0.0 0.00 0.00 0.00 93 1019.0
20260507003005 2 0 3.2 0.0 0.00 0.00 0.00 93 1019.0
20260507001504 3 190 3.2 0.0 0.00 0.00 0.00 86 1018.0
20260507000004 3 190 3.2 0.0 0.00 0.00 0.00 86 1018.0
20260506231504 5 0 1.6 0.0 0.00 0.00 0.00 80 1018.0
20260506230004 5 0 1.6 0.0 0.00 0.00 0.00 80 1018.0
20260506221504 5 20 8.0 0.0 0.00 0.00 0.00 80 1018.0
20260506220005 5 40 9.7 0.0 0.00 0.00 0.00 80 1018.0
20260506214504 5 40 9.7 0.0 0.00 0.00 0.00 80 1018.0
20260506213004 5 40 9.7 0.0 0.00 0.00 0.00 80 1018.0
20260506211504 6 70 8.0 0.0 0.00 0.00 0.00 81 1018.0
20260506204503 7 0 1.6 0.0 0.00 0.00 0.00 75 1018.0
20260506201504 7 0 3.2 0.0 0.00 0.00 0.00 70 1018.0
20260506200005 7 0 3.2 0.0 0.00 0.00 0.00 70 1018.0
20260506193004 8 0 1.6 0.0 0.00 0.00 0.00 66 1018.0
20260506183005 8 260 4.8 0.0 0.00 0.00 0.00 70 1017.0
20260506181504 10 260 8.0 0.0 0.00 0.00 0.00 66 1017.0
20260506180005 10 260 8.0 0.0 0.00 0.00 0.00 66 1017.0
20260506174503 11 300 4.8 0.0 0.00 0.00 0.00 62 1017.0
20260506173004 11 300 4.8 0.0 0.00 0.00 0.00 62 1017.0
20260506170004 12 290 11.3 0.0 0.00 0.00 0.00 54 1017.0
20260506164504 12 280 12.9 0.0 0.00 0.00 0.00 54 1017.0
20260506160005 13 260 19.3 0.0 0.00 0.00 0.00 47 1016.0
20260506154504 13 290 1.6 0.0 0.00 0.00 0.00 50 1016.0
20260506153004 13 290 1.6 0.0 0.00 0.00 0.00 50 1016.0
20260506150005 15 260 19.3 0.0 0.00 0.00 0.00 47 1016.0
20260506143005 13 290 12.9 0.0 0.00 0.00 0.00 50 1016.0
20260506141504 13 260 19.3 0.0 0.00 0.00 0.00 47 1016.0
20260506134504 13 330 11.3 0.0 0.00 0.00 0.00 50 1016.0
20260506133004 13 330 11.3 0.0 0.00 0.00 0.00 50 1016.0
20260506130005 13 340 11.3 0.0 0.00 0.00 0.00 50 1016.0
20260506123005 13 0 9.7 0.0 0.00 0.00 0.00 50 1017.0
20260506121504 12 240 11.3 0.0 0.00 0.00 0.00 54 1017.0
20260506120005 12 240 11.3 0.0 0.00 0.00 0.00 54 1017.0
20260506113004 12 0 11.3 0.0 0.00 0.00 0.00 54 1017.0
20260506111503 12 0 11.3 0.0 0.00 0.00 0.00 54 1017.0
20260506110005 12 0 11.3 0.0 0.00 0.00 0.00 54 1017.0
20260506104504 12 200 8.0 0.0 0.00 0.00 0.00 54 1017.0
20260506103002 12 200 8.0 0.0 0.00 0.00 0.00 54 1017.0
20260506093004 12 0 9.7 0.0 0.00 0.00 0.00 54 1017.0
20260506090004 11 250 11.3 0.0 0.00 0.00 0.00 62 1017.0